Current weather by "City, St" or "zip code"  
 
Advertise Here

Current Conditions: Tri-County Airport, FL

Heavy Rain Fog/Mist


63.0 F

Last Updated on Jan 22 2021, 1:58 am CST
Humidity: 93%
Wind Speed: W 4.6 mph
Barometer 29.94 in
Dewpoint: 61.0 F
Visibility: 2.00 mi
Precip: 00.43 in
Heat Index: NA
Wind Chill: 64 F
Current conditions at:

Tri-County Airport, FL (K1J0)

Lat: 30.84578 Lon: 85.60139

Local Radar Image active severe weather and emergency alerts image image weather storm and storm spotter reports image weather observation monitoring service image
Local
Radar
Active
Alerts
Storm Reports Obs
Monitoring

Sign-up For Email & Text Message Weather Alert Notification Services


Advertise Here

Observation History for Tri-County Airport, FL


Time Wind
(mph)
Vis
(mi)
Weather Precip (in) Temperature (F) Relative
Humidity
Wind
Chill
(F)
Heat
Index
(F)
Pressure
Air Dwpt altimeter
(in)
sea level
(mb)
Rmks
1:58 am CST W 4.6 2.00 Heavy Rain Fog/Mist 00.43 63.0 61.0 93% 64 NA 29.94 1009.7
12:58 am CST NW 5.8 1.50 Heavy Rain Fog/Mist 00.12 63.0 61.0 93% 63 NA 29.95 1009.9
11:58 pm CST N 0.0 3.00 Light Rain Fog/Mist 00.06 63.0 61.0 93% NA NA 29.94 1009.8
9:58 pm CST SW 4.6 10.00 Overcast Trace 64.0 60.1 87% NA NA 29.96 1010.3
8:58 pm CST SW 4.6 10.00 Overcast Trace 64.0 60.1 87% NA NA 29.97 1010.6
7:58 pm CST SW 4.6 10.00 Overcast Trace 64.0 60.1 87% NA NA 29.98 1013.4
6:58 pm CST SW 5.8 10.00 Overcast -- 66.0 57.9 75% NA NA 29.97 1013.3
4:58 pm CST SW 9.2 10.00 Overcast -- 66.0 57.9 75% NA NA 29.98 1013.8
3:58 pm CST SW 8.1 G 16.1 10.00 Overcast -- 67.0 57.0 71% NA NA 29.99 1014.1
2:58 pm CST SW 9.2 G 17.3 10.00 Overcast -- 67.0 57.0 71% NA NA 29.99 1013.9
1:58 pm CST SW 8.1 10.00 Overcast -- 67.0 55.9 68% NA NA 30.00 1014.3
12:58 pm CST SW 9.2 10.00 Overcast -- 68.0 55.0 63% NA NA 30.02 1014.9
11:58 am CST 6.9 10.00 Overcast -- 67.0 55.9 68% NA NA 30.05 1015.9
10:58 am CST SW 8.1 10.00 Mostly Cloudy -- 67.0 55.9 68% NA NA 30.08 1014.5
9:58 am CST 6.9 10.00 Overcast -- 62.0 55.0 78% 62 NA 30.12 1018.3
8:58 am CST N 0.0 NULL Fair -- 59.0 54.0 83% NA NA 30.13 1018.8
6:58 am CST S 3.5 6.00 Fog/Mist -- 51.0 48.9 92% NA NA 30.13 1018.9
5:58 am CST N 0.0 8.00 A Few Clouds -- 50.0 48.0 93% NA NA 30.14 1018.9
4:58 am CST S 3.5 10.00 Fair -- 49.0 46.9 93% NA NA 30.13 1018.9
3:58 am CST N 0.0 9.00 A Few Clouds -- 49.0 46.9 93% NA NA 30.15 1019.2
2:58 am CST N 0.0 10.00 Fair -- 50.0 46.9 89% NA NA 30.17 1017.2

Regional Weather Observation


Cairns Army Air Field / Ozark, AL (KOZR)

Fair
63.0 F

SCHELL AHP, AL (KSXS)

Fair
61.0 F

Fort Rucker, Lowe Army Heliport, AL (KLOR)

A Few Clouds
64.0 F

Tri-County Airport, FL (K1J0)

Heavy Rain Fog/Mist
63.0 F

Hanchey AHP / Ozark, AL (KHEY)

A Few Clouds
64.0 F

Dothan, Dothan Regional Airport, AL (KDHN)

Light Rain
61.0 F